User: anonymous   Login
Location: Caltech
(34.1382°N, 118.1253°W)
Time: 12:46:43
(UTC-08:00)
Language:

Tiros 1 despin weight - Orbit

View from above orbital plane
View from above orbital plane
View from above satellite
View from above satellite

Ground track
Ground track

The orbit data is extracted from the following two-line orbital elements,

1 00115U 60002D   14323.47373037  .00004419  00000-0  58313-3 0  5146
2 00115 048.1661 339.7688 0036690 279.5343 197.2049 14.81161270910650
Epoch (UTC): 19 November 2014 11:22:10
Eccentricity: 0.0036690
inclination: 48.1661°
perigee height: 600 km
apogee height: 651 km
right ascension of ascending node: 339.7688°
argument of perigee: 279.5343°
revolutions per day: 14.81161270
mean anomaly at epoch: 197.2049°
orbit number at epoch: 91065

The dashed part of the orbit path shows where the satellite is in the earth's shadow,  

DLR